FW6629 Weather Reports


Display with metric or nautical units.
time (UTC)temp
F
wind
direction
speed
MPH
gust
MPH
rain 1hr
in
rain 24hr
in
rain mn
in
humidity
%
barometer
mb
20260901014550 77 0 0.0 2.0 0.00 0.00 0.00 80 1019.2
20260901014024 78 294 0.0 2.0 0.00 0.00 0.00 80 1019.0
20260901013525 78 91 1.0 2.0 0.00 0.00 0.00 79 1019.1
20260901013053 78 106 0.0 1.0 0.00 0.00 0.00 79 1018.8
20260901012525 78 0 0.0 0.0 0.00 0.00 0.00 79 1018.8
20260901012028 78 0 0.0 2.0 0.00 0.00 0.00 79 1018.9
20260901011607 79 0 0.0 2.0 0.00 0.00 0.00 78 1018.8
20260901011027 79 106 0.0 2.0 0.00 0.00 0.00 78 1018.8
20260901010524 79 0 0.0 0.0 0.00 0.00 0.00 77 1018.7
20260901010100 79 0 0.0 1.0 0.00 0.00 0.00 75 1018.6
20260901005525 80 0 0.0 1.0 0.00 0.00 0.00 75 1018.4
20260901005027 80 0 0.0 1.0 0.00 0.00 0.00 74 1018.3
20260901004549 81 0 0.0 2.0 0.00 0.00 0.00 73 1018.3
20260901004026 81 0 0.0 2.0 0.00 0.00 0.00 72 1018.3
20260901003525 82 0 0.0 2.0 0.00 0.00 0.00 71 1018.3
20260901003048 82 0 0.0 2.0 0.00 0.00 0.00 70 1018.4
20260901002524 83 106 1.0 2.0 0.00 0.00 0.00 69 1018.2
20260901002025 83 98 1.0 2.0 0.00 0.00 0.00 68 1018.3
20260901001545 84 0 0.0 1.0 0.00 0.00 0.00 66 1018.2
20260901001027 85 0 0.0 3.0 0.00 0.00 0.00 65 1018.2
20260901000524 85 0 0.0 3.0 0.00 0.00 0.00 64 1018.3
20260901000047 86 108 0.0 2.0 0.00 0.00 0.00 63 1018.3
20260831235527 87 0 0.0 1.0 0.00 0.00 0.00 56 1018.2
20260831235023 88 0 0.0 1.0 0.00 0.00 0.00 57 1018.3
20260831234558 89 108 1.0 1.0 0.00 0.00 0.00 54 1018.3
20260831234026 89 108 1.0 1.0 0.00 0.00 0.00 51 1018.3
20260831233524 90 108 1.0 2.0 0.00 0.00 0.00 49 1018.2
20260831233046 90 110 1.0 2.0 0.00 0.00 0.00 47 1018.2
20260831232526 91 119 1.0 2.0 0.00 0.00 0.00 47 1018.4
20260831232025 91 105 1.0 3.0 0.00 0.00 0.00 49 1018.4
20260831231545 92 104 2.0 3.0 0.00 0.00 0.00 46 1018.4
20260831231026 92 98 1.0 3.0 0.00 0.00 0.00 46 1018.3
20260831230524 92 108 1.0 3.0 0.00 0.00 0.00 45 1018.4
20260831230051 92 98 2.0 3.0 0.00 0.00 0.00 46 1018.4
20260831225524 92 117 1.0 3.0 0.00 0.00 0.00 47 1018.4
20260831225025 92 0 1.0 3.0 0.00 0.00 0.00 47 1018.4
20260831224550 93 98 1.0 4.0 0.00 0.00 0.00 47 1018.5
20260831224025 93 95 1.0 4.0 0.00 0.00 0.00 45 1018.5
20260831223525 93 90 1.0 4.0 0.00 0.00 0.00 44 1018.4
20260831223051 93 89 1.0 4.0 0.00 0.00 0.00 44 1018.5
20260831222526 93 100 2.0 5.0 0.00 0.00 0.00 45 1018.4
20260831222025 93 90 3.0 5.0 0.00 0.00 0.00 44 1018.4
20260831221601 93 125 2.0 5.0 0.00 0.00 0.00 47 1018.4
20260831221025 94 123 3.0 5.0 0.00 0.00 0.00 45 1018.3
20260831220528 94 131 1.0 5.0 0.00 0.00 0.00 45 1018.5
20260831220054 94 123 1.0 5.0 0.00 0.00 0.00 47 1018.5
20260831215524 94 98 3.0 6.0 0.00 0.00 0.00 46 1018.6
20260831215025 94 84 1.0 6.0 0.00 0.00 0.00 47 1018.6
20260831214554 94 99 2.0 5.0 0.00 0.00 0.00 44 1018.6
20260831214025 94 146 2.0 5.0 0.00 0.00 0.00 44 1018.7
20260831213524 94 179 3.0 6.0 0.00 0.00 0.00 42 1018.8
20260831213044 94 121 3.0 6.0 0.00 0.00 0.00 42 1018.8
20260831212525 94 121 1.0 5.0 0.00 0.00 0.00 44 1018.9
20260831212025 94 52 3.0 6.0 0.00 0.00 0.00 43 1019.0
20260831211547 94 81 3.0 6.0 0.00 0.00 0.00 44 1018.9
20260831211024 94 80 4.0 6.0 0.00 0.00 0.00 43 1019.0
20260831210528 94 104 5.0 6.0 0.00 0.00 0.00 44 1019.1
20260831210047 95 78 1.0 5.0 0.00 0.00 0.00 47 1019.0
20260831205529 94 79 1.0 8.0 0.00 0.00 0.00 47 1019.0
20260831205026 94 106 4.0 8.0 0.00 0.00 0.00 46 1019.1
20260831204548 95 115 3.0 6.0 0.00 0.00 0.00 45 1019.0
20260831204028 95 64 2.0 6.0 0.00 0.00 0.00 46 1019.1
20260831203525 94 85 3.0 7.0 0.00 0.00 0.00 45 1019.1
20260831203057 94 161 2.0 7.0 0.00 0.00 0.00 45 1019.1
20260831202528 94 85 4.0 7.0 0.00 0.00 0.00 45 1019.2
20260831202027 94 104 3.0 7.0 0.00 0.00 0.00 46 1019.4
20260831201553 94 65 3.0 9.0 0.00 0.00 0.00 48 1019.4
20260831201026 94 109 4.0 9.0 0.00 0.00 0.00 45 1019.4
20260831200526 94 104 4.0 7.0 0.00 0.00 0.00 46 1019.5
20260831200057 94 123 3.0 6.0 0.00 0.00 0.00 46 1019.5
20260831195526 93 110 0.0 4.0 0.00 0.00 0.00 46 1019.6
20260831195027 94 316 1.0 7.0 0.00 0.00 0.00 44 1019.7
20260831194602 94 19 1.0 7.0 0.00 0.00 0.00 47 1019.8
20260831194025 94 106 2.0 7.0 0.00 0.00 0.00 45 1019.9
20260831193526 94 121 2.0 6.0 0.00 0.00 0.00 47 1019.9
20260831193044 93 171 3.0 7.0 0.00 0.00 0.00 47 1020.0
20260831192525 93 68 3.0 7.0 0.00 0.00 0.00 47 1020.0
20260831192026 93 161 1.0 7.0 0.00 0.00 0.00 47 1020.0
20260831191550 93 115 1.0 7.0 0.00 0.00 0.00 49 1020.1
20260831191027 94 113 3.0 7.0 0.00 0.00 0.00 48 1020.1
20260831190531 94 129 3.0 7.0 0.00 0.00 0.00 48 1020.2
20260831190104 93 71 2.0 6.0 0.00 0.00 0.00 50 1020.2
20260831185527 92 83 0.0 9.0 0.00 0.00 0.00 51 1020.2
20260831185026 93 94 5.0 9.0 0.00 0.00 0.00 49 1020.3
20260831184546 92 342 0.0 7.0 0.00 0.00 0.00 51 1020.4
20260831184027 92 44 2.0 7.0 0.00 0.00 0.00 51 1020.5
20260831183529 92 275 1.0 7.0 0.00 0.00 0.00 51 1020.5
20260831183043 93 121 1.0 7.0 0.00 0.00 0.00 51 1020.5
20260831182525 93 125 0.0 6.0 0.00 0.00 0.00 52 1020.7
20260831182026 92 74 2.0 5.0 0.00 0.00 0.00 51 1020.6
20260831181549 92 57 1.0 5.0 0.00 0.00 0.00 52 1020.7
20260831181026 92 89 3.0 5.0 0.00 0.00 0.00 51 1020.7
20260831180528 92 142 1.0 5.0 0.00 0.00 0.00 51 1020.8
20260831180055 92 48 1.0 10.0 0.00 0.00 0.00 51 1020.9
20260831175524 92 92 3.0 10.0 0.00 0.00 0.00 52 1021.0
20260831175026 92 121 2.0 6.0 0.00 0.00 0.00 53 1021.0
20260831174549 91 87 1.0 7.0 0.00 0.00 0.00 57 1021.0
20260831174024 91 286 1.0 7.0 0.00 0.00 0.00 58 1021.0
20260831173525 91 131 2.0 7.0 0.00 0.00 0.00 57 1021.0
20260831173052 91 140 3.0 7.0 0.00 0.00 0.00 58 1021.1
20260831172526 90 87 2.0 7.0 0.00 0.00 0.00 59 1021.1
20260831172025 90 116 1.0 5.0 0.00 0.00 0.00 60 1021.0
20260831171544 90 52 2.0 5.0 0.00 0.00 0.00 60 1021.1
20260831171025 90 95 2.0 7.0 0.00 0.00 0.00 58 1021.1
20260831170527 90 137 3.0 6.0 0.00 0.00 0.00 58 1021.0
20260831170048 91 91 2.0 4.0 0.00 0.00 0.00 61 1021.1
20260831165527 90 199 2.0 4.0 0.00 0.00 0.00 58 1021.1
20260831165026 90 86 1.0 3.0 0.00 0.00 0.00 61 1021.4
20260831164548 89 75 1.0 6.0 0.00 0.00 0.00 60 1021.5
20260831164024 89 67 2.0 8.0 0.00 0.00 0.00 62 1021.6
20260831163525 89 75 4.0 8.0 0.00 0.00 0.00 60 1021.6
20260831163046 90 111 5.0 8.0 0.00 0.00 0.00 61 1021.7
20260831162528 89 102 4.0 6.0 0.00 0.00 0.00 62 1021.8
20260831162027 89 344 2.0 8.0 0.00 0.00 0.00 62 1021.7
20260831161549 89 94 3.0 8.0 0.00 0.00 0.00 62 1021.7
20260831161026 88 6 1.0 6.0 0.00 0.00 0.00 64 1021.6
20260831160524 88 92 3.0 7.0 0.00 0.00 0.00 65 1021.6
20260831160052 88 181 2.0 7.0 0.00 0.00 0.00 65 1021.7
20260831155526 88 127 1.0 6.0 0.00 0.00 0.00 66 1021.8
20260831155026 88 183 3.0 6.0 0.00 0.00 0.00 65 1021.9
20260831154603 87 123 0.0 5.0 0.00 0.00 0.00 69 1022.0
20260831154029 87 131 1.0 5.0 0.00 0.00 0.00 69 1022.0
20260831153527 86 79 2.0 6.0 0.00 0.00 0.00 69 1022.0
20260831153046 86 297 1.0 6.0 0.00 0.00 0.00 68 1022.0
20260831152528 86 96 3.0 6.0 0.00 0.00 0.00 69 1021.9
20260831152024 85 77 0.0 5.0 0.00 0.00 0.00 70 1021.9
20260831151548 85 141 2.0 5.0 0.00 0.00 0.00 69 1022.0
20260831151028 84 122 1.0 5.0 0.00 0.00 0.00 70 1022.0
20260831150525 85 88 1.0 4.0 0.00 0.00 0.00 70 1022.1
20260831150048 84 109 1.0 5.0 0.00 0.00 0.00 71 1022.1
20260831145530 84 262 1.0 5.0 0.00 0.00 0.00 71 1022.1
20260831145025 84 181 2.0 4.0 0.00 0.00 0.00 72 1022.0
20260831144553 84 154 1.0 5.0 0.00 0.00 0.00 73 1022.0
20260831144024 83 114 2.0 6.0 0.00 0.00 0.00 73 1022.0
20260831143527 83 130 2.0 6.0 0.00 0.00 0.00 74 1022.0
20260831143052 83 125 2.0 5.0 0.00 0.00 0.00 73 1022.0
20260831142527 82 109 1.0 7.0 0.00 0.00 0.00 75 1022.0
20260831142025 82 123 2.0 8.0 0.00 0.00 0.00 75 1021.9
20260831141548 82 117 3.0 8.0 0.00 0.00 0.00 75 1021.8
20260831141024 81 108 3.0 7.0 0.00 0.00 0.00 77 1021.9
20260831140526 80 91 2.0 5.0 0.00 0.00 0.00 78 1022.0
20260831140045 79 101 1.0 4.0 0.00 0.00 0.00 82 1021.9
20260831135526 77 52 2.0 4.0 0.00 0.00 0.00 87 1021.8
20260831135025 76 98 0.0 2.0 0.00 0.00 0.00 89 1021.8
20260831134552 76 156 0.0 2.0 0.00 0.00 0.00 90 1021.8
20260831134026 75 107 0.0 2.0 0.00 0.00 0.00 90 1021.8
20260831133528 75 106 1.0 2.0 0.00 0.00 0.00 91 1021.8
20260831133047 75 139 0.0 2.0 0.00 0.00 0.00 91 1021.9
20260831132525 74 0 1.0 2.0 0.00 0.00 0.00 91 1021.9
20260831132026 74 0 0.0 1.0 0.00 0.00 0.00 92 1021.9
20260831131548 74 0 0.0 1.0 0.00 0.00 0.00 92 1021.8
20260831131026 73 0 0.0 2.0 0.00 0.00 0.00 92 1021.8
20260831130524 73 0 0.0 2.0 0.00 0.00 0.00 92 1021.8
20260831130051 73 0 0.0 2.0 0.00 0.00 0.00 92 1021.8
20260831125526 72 0 0.0 1.0 0.00 0.00 0.00 92 1021.7
20260831125027 72 0 0.0 0.0 0.00 0.00 0.00 92 1021.7
20260831124551 72 0 0.0 2.0 0.00 0.00 0.00 92 1021.6
20260831124025 72 0 0.0 2.0 0.00 0.00 0.00 92 1021.6
20260831123530 72 107 1.0 2.0 0.00 0.00 0.00 92 1021.5
20260831123047 71 106 0.0 2.0 0.00 0.00 0.00 92 1021.6
20260831122527 71 0 1.0 2.0 0.00 0.00 0.00 92 1021.5
20260831122026 71 0 0.0 2.0 0.00 0.00 0.00 92 1021.4
20260831121549 71 156 0.0 2.0 0.00 0.00 0.00 92 1021.3
20260831121024 70 148 1.0 1.0 0.00 0.00 0.00 92 1021.2
20260831120527 70 110 1.0 2.0 0.00 0.00 0.00 92 1021.2
20260831120051 70 113 1.0 2.0 0.00 0.00 0.00 92 1021.3
20260831115531 70 0 0.0 1.0 0.00 0.00 0.00 92 1021.2
20260831115028 70 0 0.0 1.0 0.00 0.00 0.00 92 1021.2
20260831114548 69 113 0.0 2.0 0.00 0.00 0.00 92 1021.2
20260831114025 69 113 1.0 2.0 0.00 0.00 0.00 92 1021.2
20260831113529 69 122 0.0 2.0 0.00 0.00 0.00 91 1021.0
20260831113101 69 122 0.0 0.0 0.00 0.00 0.00 91 1021.1
20260831112525 69 0 0.0 2.0 0.00 0.00 0.00 91 1021.0
20260831112025 69 0 0.0 2.0 0.00 0.00 0.00 91 1021.0
20260831111608 69 0 0.0 1.0 0.00 0.00 0.00 91 1020.9
20260831111024 69 122 0.0 1.0 0.00 0.00 0.00 91 1020.8
20260831110529 70 0 0.0 0.0 0.00 0.00 0.00 91 1020.7
20260831110050 70 0 0.0 2.0 0.00 0.00 0.00 91 1020.6
20260831105526 70 0 0.0 2.0 0.00 0.00 0.00 91 1020.6
20260831105025 70 0 1.0 2.0 0.00 0.00 0.00 91 1020.6
20260831104548 70 0 0.0 0.0 0.00 0.00 0.00 91 1020.5
20260831104026 70 0 0.0 2.0 0.00 0.00 0.00 91 1020.4
20260831103524 70 0 0.0 2.0 0.00 0.00 0.00 91 1020.4
20260831103048 70 0 0.0 2.0 0.00 0.00 0.00 91 1020.4
20260831102525 70 0 0.0 2.0 0.00 0.00 0.00 91 1020.4
20260831102025 70 8 0.0 2.0 0.00 0.00 0.00 91 1020.4
20260831101556 70 0 0.0 2.0 0.00 0.00 0.00 91 1020.4
20260831101024 70 0 0.0 2.0 0.00 0.00 0.00 91 1020.3
20260831100525 70 0 0.0 2.0 0.00 0.00 0.00 91 1020.2
20260831100049 70 0 0.0 1.0 0.00 0.00 0.00 91 1020.2
20260831095529 70 0 0.0 2.0 0.00 0.00 0.00 91 1020.2
20260831095025 70 0 0.0 2.0 0.00 0.00 0.00 91 1020.2
20260831094547 70 8 0.0 2.0 0.00 0.00 0.00 91 1020.2
20260831094025 71 0 0.0 2.0 0.00 0.00 0.00 91 1020.2
20260831093528 71 0 0.0 2.0 0.00 0.00 0.00 91 1020.0
20260831093044 71 0 0.0 0.0 0.00 0.00 0.00 91 1020.0
20260831092525 71 0 0.0 0.0 0.00 0.00 0.00 91 1020.0
20260831092025 71 0 0.0 2.0 0.00 0.00 0.00 91 1019.8
20260831091558 71 0 0.0 2.0 0.00 0.00 0.00 91 1019.8
20260831091030 71 173 0.0 2.0 0.00 0.00 0.00 91 1019.6
20260831090525 71 117 0.0 3.0 0.00 0.00 0.00 91 1019.7
20260831090049 71 127 0.0 3.0 0.00 0.00 0.00 91 1019.7
20260831085526 71 140 0.0 3.0 0.00 0.00 0.00 91 1019.6
20260831085025 71 0 1.0 3.0 0.00 0.00 0.00 91 1019.7
20260831084547 71 0 1.0 2.0 0.00 0.00 0.00 91 1019.7
20260831084029 71 119 0.0 2.0 0.00 0.00 0.00 91 1019.7
20260831083525 71 0 0.0 0.0 0.00 0.00 0.00 91 1019.7
20260831083050 71 0 0.0 0.0 0.00 0.00 0.00 91 1019.7
20260831082523 71 0 0.0 0.0 0.00 0.00 0.00 91 1019.7
20260831082023 71 0 0.0 0.0 0.00 0.00 0.00 91 1019.6
20260831081558 71 0 0.0 0.0 0.00 0.00 0.00 91 1019.6
20260831081025 71 0 0.0 0.0 0.00 0.00 0.00 91 1019.6
20260831080524 71 0 0.0 0.0 0.00 0.00 0.00 91 1019.7
20260831080115 71 0 0.0 0.0 0.00 0.00 0.00 91 1019.6
20260831075527 72 0 0.0 0.0 0.00 0.00 0.00 91 1019.6
20260831075024 72 0 0.0 0.0 0.00 0.00 0.00 91 1019.6
20260831074551 72 0 0.0 2.0 0.00 0.00 0.00 91 1019.5
20260831074028 72 0 0.0 2.0 0.00 0.00 0.00 91 1019.5
20260831073527 72 0 0.0 2.0 0.00 0.00 0.00 90 1019.5
20260831073111 72 115 1.0 2.0 0.00 0.00 0.00 90 1019.6
20260831072526 72 115 0.0 1.0 0.00 0.00 0.00 90 1019.6
20260831072025 72 0 0.0 2.0 0.00 0.00 0.00 90 1019.6
20260831071553 72 0 0.0 2.0 0.00 0.00 0.00 90 1019.7
20260831071027 72 0 0.0 2.0 0.00 0.00 0.00 90 1019.7
20260831070529 72 115 0.0 1.0 0.00 0.00 0.00 90 1019.7
20260831070050 72 0 0.0 0.0 0.00 0.00 0.00 90 1019.7
20260831065525 72 0 0.0 0.0 0.00 0.00 0.00 90 1019.8
20260831065025 72 0 0.0 0.0 0.00 0.00 0.00 90 1019.8
20260831064554 73 0 0.0 0.0 0.00 0.00 0.00 90 1019.8
20260831064026 73 0 0.0 0.0 0.00 0.00 0.00 90 1019.8
20260831063527 73 0 0.0 0.0 0.00 0.00 0.00 90 1019.8
20260831063048 73 0 0.0 0.0 0.00 0.00 0.00 90 1019.9
20260831062529 73 0 0.0 0.0 0.00 0.00 0.00 90 1019.9
20260831062028 73 0 0.0 1.0 0.00 0.00 0.00 90 1019.9
20260831061548 73 0 0.0 2.0 0.00 0.00 0.00 90 1019.8
20260831061033 73 0 0.0 2.0 0.00 0.00 0.00 90 1019.9
20260831060525 73 113 1.0 2.0 0.00 0.00 0.00 90 1019.9
20260831060053 73 121 0.0 2.0 0.00 0.00 0.00 90 1019.9
20260831055524 73 119 1.0 2.0 0.00 0.00 0.00 90 1019.9
20260831055024 73 152 1.0 2.0 0.00 0.00 0.00 90 1019.9
20260831054555 73 137 0.0 2.0 0.00 0.00 0.00 89 1019.9
20260831054027 74 0 0.0 2.0 0.00 0.00 0.00 89 1019.8
20260831053523 74 125 0.0 2.0 0.00 0.00 0.00 90 1019.9
20260831053049 74 125 0.0 2.0 0.00 0.00 0.00 89 1020.0
20260831052523 74 125 0.0 1.0 0.00 0.00 0.00 89 1020.0
20260831052025 74 125 0.0 1.0 0.00 0.00 0.00 89 1019.9
20260831051553 74 0 0.0 0.0 0.00 0.00 0.00 89 1019.8
20260831051023 74 0 0.0 1.0 0.00 0.00 0.00 89 1019.8
20260831050527 74 0 0.0 2.0 0.00 0.00 0.00 89 1019.8
20260831050051 74 125 0.0 2.0 0.00 0.00 0.00 89 1019.8
20260831045524 74 0 0.0 0.0 0.00 0.00 0.00 88 1019.8
20260831045025 74 0 0.0 0.0 0.00 0.00 0.00 88 1019.8
20260831044557 75 0 0.0 0.0 0.00 0.00 0.00 88 1019.9
20260831044025 75 0 0.0 0.0 0.00 0.00 0.00 88 1019.9
20260831043524 75 0 0.0 0.0 0.00 0.00 0.00 88 1019.9
20260831043050 75 0 0.0 0.0 0.00 0.00 0.00 88 1019.8
20260831042525 75 0 0.0 0.0 0.00 0.00 0.00 88 1019.8
20260831042025 75 0 0.0 0.0 0.00 0.00 0.00 88 1019.9
20260831041606 75 0 0.0 0.0 0.00 0.00 0.00 88 1019.8
20260831041029 75 0 0.0 1.0 0.00 0.00 0.00 88 1019.8
20260831040524 76 0 0.0 2.0 0.00 0.00 0.00 88 1019.8
20260831040048 76 175 0.0 2.0 0.00 0.00 0.00 87 1020.0
20260831035525 76 175 0.0 2.0 0.00 0.00 0.00 87 1019.9
20260831035026 76 0 0.0 2.0 0.00 0.00 0.00 86 1020.0
20260831034551 76 0 0.0 2.0 0.00 0.00 0.00 86 1019.9
20260831034029 76 0 0.0 0.0 0.00 0.00 0.00 86 1020.0
20260831033524 76 0 0.0 2.0 0.00 0.00 0.00 86 1020.0
20260831033047 76 0 0.0 2.0 0.00 0.00 0.00 86 1020.0
20260831032523 76 175 0.0 2.0 0.00 0.00 0.00 86 1020.0
20260831032024 77 0 0.0 2.0 0.00 0.00 0.00 86 1019.8
20260831031550 77 0 0.0 2.0 0.00 0.00 0.00 85 1019.8
20260831031029 77 0 0.0 2.0 0.00 0.00 0.00 85 1020.0
20260831030525 77 131 0.0 2.0 0.00 0.00 0.00 85 1020.0
20260831030055 77 160 0.0 2.0 0.00 0.00 0.00 84 1020.1
20260831025525 77 0 0.0 0.0 0.00 0.00 0.00 84 1020.0
20260831025028 77 0 0.0 2.0 0.00 0.00 0.00 84 1020.0
20260831024548 77 0 0.0 2.0 0.00 0.00 0.00 84 1020.0
20260831024025 77 93 0.0 2.0 0.00 0.00 0.00 84 1020.0
20260831023524 77 0 0.0 2.0 0.00 0.00 0.00 84 1020.0
20260831023053 77 93 0.0 2.0 0.00 0.00 0.00 84 1020.0
20260831022532 77 0 0.0 1.0 0.00 0.00 0.00 84 1020.0
20260831022024 77 0 0.0 2.0 0.00 0.00 0.00 84 1020.0
20260831021550 77 0 0.0 2.0 0.00 0.00 0.00 84 1019.9
20260831021024 77 0 0.0 2.0 0.00 0.00 0.00 84 1019.8
20260831020526 78 0 0.0 0.0 0.00 0.00 0.00 83 1019.8
20260831020050 78 0 0.0 0.0 0.00 0.00 0.00 83 1019.7
20260831015526 78 0 0.0 0.0 0.00 0.00 0.00 82 1019.6
20260831015027 78 0 0.0 0.0 0.00 0.00 0.00 82 1019.5